Location: Newark
(25.4297°S, 49.2719°W)
Time: 05:43:43
(UTC+00:00)

A-11 Canister half - All Passes

Search period start: 14 November 2019 00:00
Search period end: 24 November 2019 00:00
Orbit: 1514 x 1686 km, 47.2° (Epoch: 13 November)

Date Brightness Start Highest point End Pass type
(mag) Time Alt. Az. Time Alt. Az. Time Alt. Az.
14 Nov - 06:56:01 10° NNE 07:01:57 18° NE 07:07:48 10° E visible
14 Nov - 08:56:37 10° NW 09:06:02 86° NE 09:15:21 10° SE daylight
14 Nov - 11:03:43 10° W 11:11:42 31° SSW 11:19:44 10° SSE daylight
14 Nov - 13:13:42 10° SW 13:19:41 18° S 13:25:44 10° SE daylight
14 Nov - 15:19:51 10° SSW 15:27:48 30° SSE 15:35:53 10° E daylight
14 Nov - 17:24:09 10° SW 17:33:42 87° SE 17:43:35 10° NE daylight
14 Nov - 19:31:02 10° W 19:37:59 23° NW 19:45:07 10° N daylight
15 Nov - 06:33:42 10° NNE 06:39:06 17° NE 06:44:25 10° E visible
15 Nov - 08:33:43 10° NW 08:43:08 80° NE 08:52:26 10° SE daylight
15 Nov - 10:40:33 10° W 10:48:42 33° SSW 10:56:50 10° SSE daylight
15 Nov - 12:50:35 10° SW 12:56:34 18° S 13:02:36 10° SE daylight
15 Nov - 14:56:58 10° SSW 15:04:45 28° SSE 15:12:39 10° E daylight
15 Nov - 17:01:15 10° SW 17:10:47 82° SE 17:20:36 10° NE daylight
15 Nov - 19:07:49 10° WSW 19:15:07 25° NW 19:22:36 10° N daylight
16 Nov - 06:11:30 10° NNE 06:16:14 15° NE 06:20:54 10° E visible
16 Nov - 08:10:50 10° NW 08:20:15 75° NE 08:29:31 10° SE daylight
16 Nov - 10:17:24 10° W 10:25:42 35° SSW 10:33:58 10° SE daylight
16 Nov - 12:27:26 10° SW 12:33:26 18° S 12:39:30 10° SE daylight
16 Nov - 14:34:05 10° SSW 14:41:42 27° SSE 14:49:26 10° ESE daylight
16 Nov - 16:38:22 10° SW 16:47:51 77° SE 16:57:37 10° NE daylight
16 Nov - 18:44:38 10° WSW 18:52:14 27° NW 19:00:02 10° N daylight
17 Nov - 05:49:28 10° NNE 05:53:23 13° NE 05:57:14 10° E visible
17 Nov - 07:47:58 10° NW 07:57:21 70° NE 08:06:35 10° SE visible
17 Nov - 09:54:15 10° W 10:02:41 37° SSW 10:11:06 10° SE daylight
17 Nov - 12:04:16 10° SW 12:10:20 19° S 12:16:26 10° SE daylight
17 Nov - 14:11:12 10° SSW 14:18:38 26° SSE 14:26:11 10° ESE daylight
17 Nov - 16:15:29 10° SW 16:24:55 72° SE 16:34:37 10° NE daylight
17 Nov - 18:21:30 10° WSW 18:29:22 30° NW 18:37:26 10° N daylight
18 Nov - 05:27:46 10° NE 05:30:31 11° ENE 05:33:14 10° ENE visible
18 Nov - 07:25:07 10° NNW 07:34:28 65° NE 07:43:39 10° SE visible
18 Nov - 09:31:08 10° W 09:39:41 39° SSW 09:48:13 10° SE daylight
18 Nov - 11:41:06 10° SW 11:47:13 19° S 11:53:22 10° SE daylight
18 Nov - 13:48:18 10° SSW 13:55:35 25° SSE 14:02:57 10° ESE daylight
18 Nov - 15:52:37 10° SW 16:01:59 68° SE 16:11:36 10° ENE daylight
18 Nov - 17:58:24 10° WSW 18:06:28 32° NW 18:14:48 10° N daylight
19 Nov - 07:02:17 10° NNW 07:11:35 60° NE 07:20:42 10° SE visible
19 Nov - 09:08:00 10° W 09:16:43 41° SSW 09:25:21 10° SE daylight
19 Nov - 11:17:54 10° SW 11:24:07 19° S 11:30:20 10° SE daylight
19 Nov - 13:25:23 10° SSW 13:32:31 24° SSE 13:39:42 10° ESE daylight
19 Nov - 15:29:44 10° SW 15:39:02 63° SE 15:48:34 10° ENE daylight
19 Nov - 17:35:19 10° WSW 17:43:36 35° NW 17:52:08 10° N daylight
20 Nov - 06:39:27 10° NNW 06:48:42 56° NE 06:57:44 10° ESE visible
20 Nov - 08:44:53 10° WNW 08:53:43 44° SW 09:02:29 10° SE daylight
20 Nov - 10:54:42 10° SW 11:01:00 20° S 11:07:20 10° SSE daylight
20 Nov - 13:02:28 10° SSW 13:09:26 23° SSE 13:16:27 10° ESE daylight
20 Nov - 15:06:51 10° SW 15:16:05 59° SE 15:25:32 10° ENE daylight
20 Nov - 17:12:16 10° WSW 17:20:43 38° NW 17:29:26 10° NNE daylight
21 Nov - 06:16:39 10° NNW 06:25:49 52° NE 06:34:45 10° ESE visible
21 Nov - 08:21:47 10° WNW 08:30:45 46° SW 08:39:36 10° SE daylight
21 Nov - 10:31:29 10° SW 10:37:55 20° SSW 10:44:20 10° SSE daylight
21 Nov - 12:39:32 10° SSW 12:46:21 22° SSE 12:53:13 10° ESE daylight
21 Nov - 14:43:59 10° SW 14:53:08 56° SE 15:02:29 10° ENE daylight
21 Nov - 16:49:13 10° WSW 16:57:50 41° NW 17:06:43 10° NNE daylight
22 Nov - 05:53:52 10° NNW 06:02:57 48° NE 06:11:46 10° ESE visible
22 Nov - 07:58:41 10° WNW 08:07:47 49° SW 08:16:44 10° SE daylight
22 Nov - 10:08:15 10° WSW 10:14:49 21° SSW 10:21:22 10° SSE daylight
22 Nov - 12:16:36 10° SSW 12:23:16 21° SSE 12:29:58 10° ESE daylight
22 Nov - 14:21:08 10° SW 14:30:11 52° SE 14:39:25 10° ENE daylight
22 Nov - 16:26:12 10° WSW 16:34:57 45° NW 16:43:58 10° NNE daylight
23 Nov - 05:31:07 10° NNW 05:40:03 44° NE 05:48:46 10° ESE visible
23 Nov - 07:35:37 10° WNW 07:44:49 52° SW 07:53:52 10° SE visible
23 Nov - 09:45:02 10° WSW 09:51:43 21° SSW 09:58:24 10° SSE daylight
23 Nov - 11:53:38 10° SSW 12:00:10 21° SSE 12:06:44 10° ESE daylight
23 Nov - 13:58:15 10° SW 14:07:13 49° SE 14:16:20 10° ENE daylight
23 Nov - 16:03:12 10° WSW 16:12:04 48° NW 16:21:12 10° NNE daylight
